1501405200.46,16081,21.31,74566.0,28.07,-13.01,-14.23,0,*49
1501405201.73,16082,21.31,74564.8,28.09,-12.75,-13.79,0,*4E
1501405202.93,16083,21.38,74568.0,28.11,-12.47,-13.65,0,*4A
1501405204.14,16084,21.38,74564.3,28.11,-12.25,-13.51,0,*4E
1501405205.35,16085,21.31,74562.5,28.11,-12.21,-13.23,0,*4E
1501405206.58,16086,21.38,74568.5,28.11,-11.37,-12.47,0,*4A
1501405207.78,16087,21.31,74566.0,28.15,-11.41,-12.43,0,*4A
1501405208.99,16088,21.31,74562.3,28.15,-12.25,-13.51,0,*46
1501405210.23,16089,21.38,74564.3,28.15,-12.79,-13.83,0,*41
1501405211.44,16090,21.31,74562.8,28.15,-13.51,-14.89,0,*4F
1501405212.66,16091,21.31,74564.0,28.15,-13.73,-15.01,0,*4F
1501405213.92,16092,21.31,74564.8,28.17,-13.47,-14.55,0,*49
1501405215.13,16093,21.31,74564.8,28.15,-14.15,-15.25,0,*4C
1501405216.4,16094,21.31,74564.0,28.13,-14.05,-15.25,0,*4C
1501405217.61,16095,21.31,74566.5,28.15,-14.23,-15.29,0,*43
1501405218.86,16096,21.31,74564.5,28.13,-12.35,-13.43,0,*4D
1501405220.08,16097,21.31,74564.0,28.15,-12.57,-13.73,0,*4D
1501405221.3,16098,21.31,74564.0,28.15,-12.57,-13.65,0,*45
1501405222.53,16099,21.31,74560.8,28.15,-13.51,-14.51,0,*43
1501405223.74,16100,21.31,74564.5,28.15,-14.11,-15.53,0,*42
1501405225.02,16101,21.31,74564.0,28.13,-13.61,-14.75,0,*40
1501405226.24,16102,21.31,74564.5,28.15,-12.71,-13.69,0,*4F
1501405227.49,16103,21.31,74564.3,28.17,-11.97,-13.23,0,*49
1501405228.72,16104,21.31,74566.0,28.17,-13.23,-14.37,0,*41
1501405229.97,16105,21.38,74566.3,28.17,-12.61,-13.65,0,*47
1501405231.23,16106,21.38,74566.8,28.17,-12.25,-13.33,0,*47
1501405232.49,16107,21.31,74560.5,28.17,-11.93,-12.97,0,*47
1501405233.69,16108,21.31,74564.0,28.19,-13.19,-14.33,0,*4E
1501405234.95,16109,21.31,74562.8,28.19,-13.61,-14.79,0,*4E
1501405236.2,16110,21.31,74560.5,28.17,-14.33,-15.57,0,*45
1501405237.45,16111,21.38,74564.8,28.17,-14.11,-15.25,0,*41
1501405238.69,16112,21.38,74566.5,28.17,-12.61,-13.65,0,*41
1501405239.94,16113,21.31,74560.5,28.17,-12.61,-13.69,0,*4C
1501405241.19,16114,21.31,74564.3,28.19,-11.81,-12.79,0,*48
1501405242.47,16115,21.38,74564.8,28.17,-11.51,-12.53,0,*42
1501405243.72,16116,21.38,74564.8,28.23,-11.77,-12.83,0,*4F
1501405244.91,16117,21.38,74566.5,28.23,-12.03,-13.15,0,*40
1501405246.13,16118,21.38,74568.0,28.23,-12.65,-13.73,0,*4F
1501405247.38,16119,21.38,74566.3,28.21,-13.93,-15.01,0,*47
1501405248.58,16120,21.31,74560.5,28.23,-15.15,-16.41,0,*40
1501405249.85,16121,21.38,74568.0,28.21,-14.93,-16.31,0,*4B
1501405251.13,16122,21.38,74566.3,28.17,-14.55,-15.85,0,*4B
1501405252.39,16123,21.38,74566.5,28.17,-14.37,-15.81,0,*4A
1501405253.66,16124,21.38,74566.5,28.17,-14.19,-15.35,0,*4E
1501405254.93,16125,21.38,74564.0,28.17,-14.93,-16.23,0,*49
1501405256.15,16126,21.38,74566.0,28.15,-13.73,-14.75,0,*40
1501405257.37,16127,21.31,74560.8,28.15,-12.89,-13.87,0,*4F
1501405258.6,16128,21.31,74566.5,28.15,-12.29,-13.29,0,*4E
1501405259.88,16129,21.38,74566.8,28.17,-11.67,-12.75,0,*4C
1501405261.09,16130,21.38,74564.0,28.19,-11.41,-12.39,0,*46
1501405262.3,16131,21.38,74566.0,28.23,-11.19,-12.15,0,*4D
1501405263.53,16132,21.31,74562.8,28.23,-12.29,-13.29,0,*40
1501405264.78,16133,21.38,74564.0,28.23,-11.85,-12.83,0,*45
1501405266.0,16134,21.31,74560.5,28.23,-12.89,-14.01,0,*41
1501405267.2,16135,21.31,74564.0,28.27,-13.47,-14.37,0,*42
1501405268.43,16136,21.38,74564.0,28.27,-14.19,-15.35,0,*4E
1501405269.66,16137,21.38,74566.3,28.27,-13.51,-14.43,0,*44
1501405270.85,16138,21.38,74566.3,28.23,-12.43,-13.43,0,*4A
1501405272.07,16139,21.38,74564.5,28.21,-12.29,-13.47,0,*41
1501405273.29,16140,21.38,74564.8,28.27,-13.65,-14.79,0,*4A
1501405274.49,16141,21.38,74564.8,28.23,-13.11,-14.11,0,*42
1501405275.71,16142,21.38,74566.3,28.21,-13.47,-14.61,0,*47
1501405276.94,16143,21.38,74566.0,28.23,-13.43,-14.55,0,*47
1501405278.17,16144,21.38,74564.8,28.27,-13.51,-14.55,0,*47
1501405279.4,16145,21.31,74564.0,28.27,-14.23,-15.39,0,*4F
1501405280.62,16146,21.38,74566.3,28.23,-15.11,-16.27,0,*44
1501405281.86,16147,21.38,74566.3,28.21,-14.19,-15.29,0,*43
1501405283.14,16148,21.38,74564.5,28.21,-13.79,-14.79,0,*49
1501405284.37,16149,21.38,74564.8,28.21,-13.07,-14.15,0,*4B
1501405285.61,16150,21.38,74566.5,28.21,-13.33,-14.33,0,*40
1501405286.86,16151,21.38,74566.5,28.21,-13.43,-14.43,0,*41
1501405288.11,16152,21.38,74564.3,28.21,-13.55,-14.51,0,*46
1501405289.36,16153,21.38,74568.3,28.21,-12.47,-13.61,0,*41
1501405290.61,16154,21.38,74564.3,28.23,-12.71,-13.83,0,*4D
1501405291.87,16155,21.38,74568.5,28.21,-12.93,-14.01,0,*4F
1501405293.09,16156,21.38,74568.3,28.27,-13.37,-14.65,0,*47
1501405294.33,16157,21.38,74564.5,28.23,-13.97,-15.11,0,*4A
1501405295.57,16158,21.38,74566.0,28.23,-12.75,-13.87,0,*41
1501405296.77,16159,21.38,74564.3,28.23,-13.11,-14.23,0,*4A
1501405297.99,16160,21.38,74566.3,28.23,-12.65,-13.69,0,*4B
1501405299.18,16161,21.38,74564.3,28.27,-12.39,-13.65,0,*4B
1501405300.41,16162,21.38,74564.3,28.29,-13.23,-14.43,0,*4F
1501405301.61,16163,21.38,74566.8,28.23,-13.15,-14.23,0,*47
1501405302.85,16164,21.38,74564.0,28.27,-12.53,-13.79,0,*4F
1501405304.11,16165,21.38,74568.0,28.27,-12.79,-13.97,0,*46
1501405305.31,16166,21.38,74566.8,28.29,-12.47,-13.55,0,*48
1501405306.57,16167,21.38,74566.3,28.29,-12.07,-13.37,0,*49
1501405307.8,16168,21.38,74564.3,28.29,-11.97,-13.19,0,*40
1501405309.04,16169,21.38,74564.5,28.29,-12.07,-13.19,0,*4B
1501405310.27,16170,21.38,74568.0,28.31,-12.93,-14.15,0,*4C
1501405311.5,16171,21.38,74568.5,28.33,-12.61,-13.69,0,*4E
1501405312.78,16172,21.38,74566.3,28.31,-12.79,-14.01,0,*4F
1501405314.01,16173,21.38,74566.8,28.33,-12.89,-14.01,0,*43
1501405315.24,16174,21.38,74566.8,28.31,-13.15,-14.37,0,*47
1501405316.52,16175,21.38,74564.0,28.31,-12.79,-14.05,0,*4C
1501405317.75,16176,21.38,74566.3,28.31,-12.21,-13.51,0,*44
1501405318.98,16177,21.38,74564.5,28.33,-12.15,-13.43,0,*43
1501405320.21,16178,21.38,74566.3,28.33,-12.83,-14.23,0,*42
1501405321.42,16179,21.38,74566.5,28.33,-13.55,-14.89,0,*49
1501405322.67,16180,21.38,74564.5,28.33,-12.57,-13.83,0,*41
1501405323.91,16181,21.38,74564.8,28.33,-11.89,-13.23,0,*4A
1501405325.16,16182,21.38,74570.3,28.35,-11.81,-13.19,0,*4E
1501405326.45,16183,21.38,74568.0,28.35,-11.59,-12.83,0,*48
1501405327.72,16184,21.38,74564.8,28.35,-13.33,-14.55,0,*4C
1501405329.0,16185,21.38,74566.5,28.35,-12.53,-13.79,0,*43
1501405330.26,16186,21.38,74564.3,28.35,-13.43,-14.83,0,*42
1501405331.47,16187,21.38,74570.0,28.37,-13.19,-14.61,0,*42
1501405332.7,16188,21.38,74564.0,28.35,-13.93,-15.25,0,*4C
1501405333.94,16189,21.38,74566.8,28.35,-12.25,-13.51,0,*44
1501405335.16,16190,21.38,74566.3,28.37,-12.83,-14.11,0,*41
1501405336.39,16191,21.38,74568.3,28.37,-12.65,-14.15,0,*4C
1501405337.63,16192,21.38,74566.8,28.37,-11.93,-13.19,0,*4E
1501405338.88,16193,21.38,74566.3,28.37,-11.51,-12.65,0,*4B
1501405340.13,16194,21.38,74566.5,28.39,-11.37,-12.43,0,*46
1501405341.39,16195,21.38,74566.5,28.41,-10.67,-11.77,0,*48
1501405342.65,16196,21.38,74568.0,28.41,-10.67,-11.73,0,*4F
1501405343.91,16197,21.38,74564.8,28.45,-11.29,-12.35,0,*40
1501405345.17,16198,21.38,74568.0,28.43,-11.37,-12.39,0,*4A
1501405346.45,16199,21.38,74566.0,28.47,-11.63,-12.75,0,*46
1501405347.74,16200,21.38,74566.3,28.47,-11.33,-12.35,0,*44
1501405348.98,16201,21.38,74564.3,28.51,-11.19,-12.15,0,*48
1501405350.21,16202,21.38,74566.3,28.53,-11.33,-12.39,0,*4F
1501405351.46,16203,21.38,74566.3,28.55,-11.33,-12.39,0,*48
1501405352.69,16204,21.38,74564.8,28.55,-11.41,-12.43,0,*47
1501405353.97,16205,21.38,74564.0,28.59,-10.63,-11.73,0,*4B
1501405355.24,16206,21.38,74566.3,28.59,-10.79,-11.85,0,*4A
1501405356.48,16207,21.38,74568.8,28.59,-10.53,-11.51,0,*4A
1501405357.68,16208,21.38,74564.5,28.63,-10.31,-11.15,0,*48
1501405358.88,16209,21.38,74566.3,28.67,-10.49,-11.45,0,*47
1501405360.16,16210,21.38,74566.0,28.69,-10.75,-11.93,0,*45
1501405361.43,16211,21.38,74568.0,28.69,-12.15,-13.37,0,*4C
1501405362.65,16212,21.38,74564.8,28.69,-12.97,-14.11,0,*46
1501405363.91,16213,21.38,74568.5,28.69,-13.01,-14.15,0,*4D
1501405365.17,16214,21.38,74564.0,28.69,-13.37,-14.43,0,*4C
1501405366.4,16215,21.38,74566.5,28.67,-12.71,-13.73,0,*44
1501405367.59,16216,21.38,74568.0,28.67,-12.43,-13.47,0,*41
1501405368.81,16217,21.38,74570.3,28.67,-12.43,-13.61,0,*44
1501405370.02,16218,21.38,74568.0,28.67,-12.03,-13.19,0,*40
1501405371.3,16219,21.38,74568.0,28.69,-11.67,-12.71,0,*41
1501405372.57,16220,21.38,74568.0,28.73,-11.51,-12.61,0,*44
1501405373.85,16221,21.38,74564.0,28.73,-11.89,-12.79,0,*49
1501405375.09,16222,21.38,74566.8,28.73,-12.53,-13.47,0,*42
1501405376.3,16223,21.38,74566.8,28.75,-12.97,-14.19,0,*41
1501405377.51,16224,21.38,74568.3,28.75,-14.23,-15.53,0,*40
1501405378.75,16225,21.38,74570.5,28.73,-15.21,-16.37,0,*45
1501405379.97,16226,21.38,74568.5,28.67,-15.57,-16.93,0,*4C
1501405381.19,16227,21.38,74568.0,28.67,-15.57,-16.93,0,*4D
1501405382.42,16228,21.38,74566.5,28.65,-15.53,-16.75,0,*4C
1501405383.62,16229,21.38,74564.5,28.63,-15.67,-16.89,0,*4F
1501405384.85,16230,21.38,74564.8,28.61,-15.25,-16.41,0,*47
1501405386.11,16231,21.38,74570.3,28.61,-14.55,-15.75,0,*44
1501405387.35,16232,21.38,74568.8,28.59,-14.69,-15.89,0,*40
1501405388.55,16233,21.38,74570.3,28.57,-14.37,-15.67,0,*44
1501405389.81,16234,21.38,74566.5,28.57,-13.97,-15.21,0,*4C
1501405391.06,16235,21.38,74568.8,28.57,-12.35,-13.37,0,*45
1501405392.28,16236,21.38,74570.0,28.57,-12.61,-13.65,0,*40
1501405393.55,16237,21.38,74566.3,28.59,-13.87,-15.21,0,*40
1501405394.78,16238,21.38,74568.0,28.57,-15.25,-16.51,0,*4B
1501405396.0,16239,21.38,74564.8,28.57,-15.25,-16.65,0,*4D
1501405397.24,16240,21.38,74564.8,28.59,-14.19,-15.49,0,*4E
1501405398.48,16241,21.38,74568.3,28.57,-14.05,-15.25,0,*46
1501405399.73,16242,21.38,74568.5,28.55,-12.39,-13.29,0,*44
1501405400.99,16243,21.38,74566.3,28.55,-11.81,-12.83,0,*44
1501405402.22,16244,21.38,74570.0,28.57,-12.15,-13.11,0,*45
1501405403.5,16245,21.38,74564.8,28.59,-13.01,-14.05,0,*4C
1501405404.76,16246,21.38,74568.5,28.59,-14.47,-15.75,0,*4C
1501405405.98,16247,21.38,74564.5,28.59,-15.49,-16.97,0,*4D
1501405407.24,16248,21.38,74570.5,28.57,-16.13,-17.59,0,*43
1501405408.51,16249,21.38,74568.8,28.55,-16.27,-17.63,0,*4E
1501405409.75,16250,21.38,74564.3,28.55,-15.85,-17.31,0,*4A
1501405410.96,16251,21.38,74566.0,28.53,-15.15,-16.59,0,*4B
1501405412.21,16252,21.38,74568.5,28.53,-14.93,-16.27,0,*4E
1501405413.44,16253,21.38,74566.0,28.47,-16.37,-17.83,0,*49
1501405414.69,16254,21.38,74570.3,28.47,-17.25,-18.79,0,*46
1501405415.92,16255,21.38,74572.0,28.45,-16.69,-18.11,0,*42
1501405417.15,16256,21.38,74566.0,28.41,-16.31,-17.69,0,*48
1501405418.43,16257,21.38,74570.5,28.39,-16.65,-17.97,0,*46
1501405419.68,16258,21.38,74566.5,28.39,-15.95,-17.45,0,*4A
1501405420.96,16259,21.38,74570.3,28.39,-16.23,-17.59,0,*48
1501405422.22,16260,21.38,74568.8,28.35,-16.55,-18.01,0,*4D
1501405423.47,16261,21.38,74568.5,28.35,-17.11,-18.65,0,*4F
1501405424.72,16262,21.38,74568.0,28.35,-17.11,-18.25,0,*48
1501405426.0,16263,21.38,74566.3,28.31,-14.93,-16.17,0,*4B
1501405427.24,16264,21.38,74566.8,28.31,-14.15,-15.07,0,*40
1501405428.49,16265,21.38,74564.3,28.31,-14.51,-15.67,0,*47
1501405429.73,16266,21.38,74566.3,28.33,-14.15,-15.21,0,*44
1501405430.96,16267,21.38,74564.5,28.31,-12.89,-13.93,0,*4B
1501405432.18,16268,21.38,74564.0,28.35,-13.55,-14.69,0,*42
1501405433.42,16269,21.38,74566.8,28.37,-14.05,-15.07,0,*4A
1501405434.66,16270,21.38,74566.8,28.37,-13.51,-14.51,0,*46
1501405435.89,16271,21.38,74566.3,28.37,-13.07,-14.05,0,*45
1501405437.1,16272,21.38,74566.5,28.37,-13.19,-14.23,0,*4D
1501405438.33,16273,21.38,74566.5,28.41,-13.01,-14.11,0,*45
1501405439.56,16274,21.38,74562.8,28.41,-13.69,-14.75,0,*4E
1501405440.82,16275,21.38,74564.5,28.41,-12.75,-13.83,0,*4D
1501405442.02,16276,21.38,74564.8,28.41,-13.15,-14.19,0,*4D
1501405443.25,16277,21.38,74566.8,28.41,-12.57,-13.55,0,*44
1501405444.5,16278,21.38,74564.8,28.45,-12.07,-13.37,0,*4E
1501405445.75,16279,21.38,74562.8,28.45,-13.29,-14.43,0,*46
1501405446.94,16280,21.38,74560.8,28.45,-13.11,-14.11,0,*4C
1501405448.21,16281,21.38,74564.5,28.47,-12.53,-13.79,0,*41
1501405449.47,16282,21.38,74562.0,28.47,-12.29,-13.37,0,*45
1501405450.74,16283,21.38,74560.8,28.51,-11.97,-13.01,0,*40
1501405451.97,16284,21.38,74566.5,28.55,-13.55,-14.65,0,*4A
1501405453.2,16285,21.38,74562.8,28.53,-13.51,-14.51,0,*4E
1501405454.43,16286,21.38,74566.0,28.55,-14.29,-15.53,0,*40
1501405455.68,16287,21.38,74564.5,28.55,-14.65,-15.81,0,*46
1501405456.91,16288,21.38,74562.5,28.51,-14.89,-15.95,0,*4A
1501405458.15,16289,21.38,74564.3,28.47,-14.37,-15.53,0,*43
1501405459.42,16290,21.38,74564.8,28.51,-15.43,-16.51,0,*4F
1501405460.7,16291,21.38,74564.5,28.47,-16.27,-17.45,0,*4C
1501405461.96,16292,21.38,74566.5,28.43,-15.71,-17.03,0,*49
1501405463.2,16293,21.38,74564.8,28.43,-14.11,-15.29,0,*45
1501405464.44,16294,21.38,74568.8,28.41,-14.19,-15.57,0,*41
1501405465.72,16295,21.38,74562.5,28.43,-14.97,-16.27,0,*40
1501405466.98,16296,21.38,74564.8,28.43,-14.83,-16.03,0,*40
1501405468.24,16297,21.38,74566.8,28.43,-14.51,-15.71,0,*48
1501405469.5,16298,21.38,74568.8,28.39,-15.15,-16.27,0,*4B
1501405470.76,16299,21.38,74564.3,28.41,-14.83,-15.89,0,*4C
1501405472.01,16300,21.38,74566.0,28.39,-15.63,-16.69,0,*40
1501405473.26,16301,21.38,74570.0,28.39,-15.81,-16.97,0,*4C
1501405474.51,16302,21.38,74568.3,28.37,-15.81,-17.11,0,*4E
1501405475.79,16303,21.38,74566.0,28.35,-15.85,-17.11,0,*49
1501405477.05,16304,21.38,74566.8,28.35,-15.07,-16.17,0,*43
1501405478.31,16305,21.38,74566.3,28.35,-14.43,-15.71,0,*40
1501405479.56,16306,21.38,74564.0,28.35,-14.65,-15.81,0,*48
1501405480.85,16307,21.38,74564.0,28.35,-14.83,-16.27,0,*4E
1501405482.08,16308,21.38,74568.0,28.33,-14.75,-15.99,0,*48
1501405483.33,16309,21.38,74566.3,28.33,-14.75,-15.89,0,*48
1501405484.57,16310,21.38,74568.8,28.35,-13.51,-14.65,0,*44
1501405485.77,16311,21.38,74566.3,28.33,-13.15,-14.23,0,*41
1501405487.01,16312,21.38,74568.5,28.37,-12.21,-13.29,0,*4D
1501405488.2,16313,21.38,74564.5,28.37,-12.43,-13.47,0,*40
1501405489.44,16314,21.38,74566.8,28.41,-12.97,-13.97,0,*42
1501405490.67,16315,21.38,74568.5,28.41,-12.57,-13.69,0,*4E
1501405491.86,16316,21.38,74564.3,28.41,-12.43,-13.47,0,*44
1501405493.06,16317,21.38,74566.0,28.41,-12.97,-14.11,0,*48
1501405494.29,16318,21.38,74564.3,28.45,-12.57,-13.55,0,*48
1501405495.52,16319,21.38,74564.3,28.45,-13.51,-14.43,0,*4E
1501405496.76,16320,21.38,74564.8,28.45,-13.51,-14.51,0,*47
1501405497.99,16321,21.38,74566.0,28.45,-12.71,-14.15,0,*45
1501405499.24,16322,21.38,74566.5,28.45,-15.39,-16.69,0,*44
1501405500.44,16323,21.38,74564.8,28.45,-14.23,-13.69,0,*4A
1501405501.68,16324,21.38,74566.5,28.43,-14.15,-13.69,0,*4E
1501405502.94,16325,21.38,74564.5,28.43,-13.55,-12.79,0,*4C
1501405504.19,16326,21.38,74566.5,28.43,-13.79,-12.25,0,*48
1501405505.42,16327,21.38,74566.8,28.41,-14.69,-14.01,0,*4D
1501405506.65,16328,21.38,74570.8,28.41,-15.57,-15.11,0,*4E
1501405507.9,16329,21.38,74566.8,28.39,-15.81,-16.55,0,*48
1501405509.1,16330,21.38,74564.3,28.37,-16.93,-18.17,0,*46
1501405510.35,16331,21.38,74566.3,28.35,-17.03,-18.21,0,*48
1501405511.61,16332,21.38,74566.8,28.35,-15.43,-16.41,0,*45
1501405512.85,16333,21.38,74566.0,28.33,-14.83,-15.75,0,*4B
1501405514.08,16334,21.38,74570.0,28.31,-15.53,-16.03,0,*40
1501405515.33,16335,21.38,74568.0,28.29,-14.79,-14.93,0,*4A
1501405516.56,16336,21.38,74564.8,28.29,-15.99,-15.81,0,*44
1501405517.78,16337,21.38,74570.5,28.27,-14.69,-14.79,0,*43
1501405518.98,16338,21.38,74568.0,28.27,-17.73,-17.87,0,*46
1501405520.23,16339,21.38,74568.3,28.19,-16.27,-17.63,0,*40
1501405521.46,16340,21.38,74566.8,28.19,-15.53,-17.17,0,*4D
1501405522.71,16341,21.38,74566.8,28.17,-13.37,-16.41,0,*44
1501405523.91,16342,21.38,74564.8,28.15,-12.43,-15.99,0,*41
1501405525.13,16343,21.38,74568.8,28.13,-12.29,-15.67,0,*4B
1501405526.39,16344,21.38,74568.3,28.11,-11.77,-14.93,0,*4C
1501405527.6,16345,21.38,74564.3,28.13,-10.49,-13.73,0,*4A
1501405528.85,16346,21.38,74566.3,28.13,-12.03,-15.57,0,*45
1501405530.09,16347,21.38,74566.5,28.11,-11.89,-15.25,0,*42
1501405531.34,16348,21.38,74566.8,28.11,-11.51,-14.83,0,*45
1501405532.6,16349,21.38,74566.8,28.09,-12.07,-14.37,0,*42
1501405533.86,16350,21.38,74564.3,28.09,-11.93,-12.47,0,*45
1501405535.09,16351,21.38,74564.3,28.09,-14.11,-15.11,0,*4F
1501405536.35,16352,21.38,74566.3,28.09,-13.93,-14.97,0,*4E
1501405537.58,16353,21.38,74562.0,28.11,-13.83,-14.69,0,*46
1501405538.8,16354,21.38,74566.0,28.11,-12.65,-13.65,0,*43
1501405540.04,16355,21.38,74564.0,28.11,-13.61,-14.65,0,*40
1501405541.25,16356,21.38,74564.5,28.15,-14.37,-15.53,0,*47
1501405542.47,16357,21.38,74564.5,28.13,-15.63,-16.93,0,*4F
1501405543.72,16358,21.38,74564.5,28.13,-13.79,-14.89,0,*44
1501405544.96,16359,21.38,74566.3,28.13,-13.73,-15.01,0,*4E
1501405546.21,16360,21.38,74566.0,28.13,-15.49,-16.69,0,*46
1501405547.46,16361,21.38,74566.0,28.11,-16.51,-17.59,0,*4D
1501405548.72,16362,21.38,74568.5,28.09,-16.83,-17.93,0,*4E
1501405550.0,16363,21.38,74566.8,28.09,-16.23,-17.41,0,*4A
1501405551.22,16364,21.38,74568.0,28.07,-15.49,-16.65,0,*4B
1501405552.47,16365,21.38,74564.3,28.05,-15.81,-16.97,0,*41
1501405553.72,16366,21.38,74568.5,28.07,-14.83,-15.89,0,*4F
1501405554.99,16367,21.38,74566.8,28.05,-15.21,-16.31,0,*45
1501405556.25,16368,21.38,74566.8,28.01,-17.45,-18.65,0,*41
1501405557.48,16369,21.38,74566.0,27.99,-17.93,-19.17,0,*41
1501405558.74,16370,21.38,74566.5,27.97,-16.27,-17.35,0,*47
1501405559.97,16371,21.38,74566.5,27.95,-15.49,-16.79,0,*46
1501405561.25,16372,21.38,74564.0,27.97,-15.81,-17.07,0,*4B
1501405562.51,16373,21.38,74564.8,27.97,-17.17,-18.49,0,*42
1501405563.74,16374,21.38,74562.8,27.95,-17.35,-18.73,0,*4E
1501405564.99,16375,21.38,74566.8,27.91,-18.11,-19.31,0,*45
1501405566.19,16376,21.38,74562.5,27.89,-15.71,-16.83,0,*42
1501405567.42,16377,21.38,74566.0,27.89,-16.69,-18.07,0,*4B
1501405568.68,16378,21.38,74566.8,27.87,-16.79,-18.01,0,*4D
1501405569.94,16379,21.38,74562.5,27.85,-17.17,-18.35,0,*40
1501405571.17,16380,21.38,74566.0,27.85,-15.49,-16.65,0,*44
1501405572.4,16381,21.38,74564.8,27.85,-15.07,-16.13,0,*4E
1501405573.64,16382,21.38,74564.3,27.85,-15.39,-16.55,0,*42
1501405574.84,16383,21.38,74564.8,27.85,-15.67,-16.83,0,*43
1501405576.05,16384,21.38,74560.3,27.85,-14.61,-15.75,0,*49
1501405577.28,16385,21.38,74566.8,27.85,-14.93,-16.03,0,*47
1501405578.57,16386,21.38,74564.5,27.87,-14.43,-15.43,0,*4C
1501405579.85,16387,21.38,74564.8,27.87,-13.87,-14.97,0,*4A
1501405581.1,16388,21.38,74564.8,27.87,-15.07,-16.09,0,*4E
1501405582.34,16389,21.38,74564.0,27.89,-14.43,-15.53,0,*4C
1501405583.59,16390,21.38,74564.0,27.87,-15.15,-16.31,0,*4F
1501405584.85,16391,21.38,74564.5,27.87,-13.97,-15.07,0,*44
1501405586.07,16392,21.38,74560.3,27.89,-12.57,-13.65,0,*46
1501405587.35,16393,21.38,74564.8,27.91,-13.37,-14.51,0,*49
1501405588.62,16394,21.38,74564.5,27.91,-15.43,-16.69,0,*42
1501405589.9,16395,21.38,74564.3,27.91,-16.27,-17.59,0,*40
1501405591.16,16396,21.38,74560.3,27.91,-16.41,-17.59,0,*43
1501405592.42,16397,21.38,74560.3,27.87,-16.09,-17.35,0,*43
1501405593.7,16398,21.38,74566.5,27.87,-15.85,-17.11,0,*4D
1501405594.9,16399,21.38,74564.8,27.85,-16.03,-17.31,0,*41
1501405596.18,16400,21.38,74564.0,27.83,-16.65,-18.01,0,*4C
1501405597.41,16401,21.38,74562.0,27.83,-15.49,-16.55,0,*4F
1501405598.67,16402,21.38,74564.0,27.79,-14.37,-15.43,0,*45
1501405599.93,16403,21.38,74562.5,27.83,-14.47,-15.67,0,*40
1501405601.18,16404,21.38,74564.3,27.83,-14.65,-15.89,0,*47
1501405602.43,16405,21.38,74562.5,27.83,-15.25,-16.65,0,*42
1501405603.66,16406,21.38,74566.0,27.83,-14.61,-15.75,0,*42
1501405604.89,16407,21.38,74564.5,27.85,-14.15,-15.25,0,*43
1501405606.15,16408,21.38,74564.5,27.83,-16.37,-17.45,0,*4C
1501405607.4,16409,21.38,74562.0,27.83,-14.75,-15.75,0,*48
1501405608.63,16410,21.38,74564.5,27.83,-13.65,-14.65,0,*46
1501405609.89,16411,21.44,74566.8,27.83,-14.15,-15.35,0,*43
1501405611.13,16412,21.38,74564.8,27.85,-14.33,-15.39,0,*4E
1501405612.36,16413,21.38,74564.5,27.85,-14.79,-16.03,0,*4B
1501405613.64,16414,21.38,74564.3,27.87,-16.51,-17.79,0,*4A
1501405614.89,16415,21.38,74562.5,27.83,-18.35,-19.71,0,*45
1501405616.11,16416,21.38,74560.3,27.77,-19.81,-21.17,0,*48
1501405617.36,16417,21.38,74566.0,27.75,-18.11,-19.65,0,*4D
1501405618.57,16418,21.38,74566.3,27.73,-16.83,-18.07,0,*44
1501405619.8,16419,21.38,74564.8,27.69,-16.27,-17.69,0,*47
1501405621.08,16420,21.38,74566.0,27.71,-16.09,-17.21,0,*44
1501405622.33,16421,21.38,74564.3,27.71,-15.07,-16.23,0,*4B
1501405623.53,16422,21.38,74566.0,27.69,-15.71,-16.89,0,*40
1501405624.74,16423,21.38,74560.3,27.69,-16.37,-17.49,0,*4D
1501405625.97,16424,21.38,74564.0,27.69,-16.51,-17.83,0,*4C
1501405627.21,16425,21.38,74560.8,27.67,-16.41,-17.83,0,*42
1501405628.4,16426,21.38,74564.0,27.65,-17.49,-18.79,0,*40
1501405629.68,16427,21.38,74560.3,27.67,-16.69,-18.01,0,*4F
1501405630.94,16428,21.38,74566.0,27.63,-18.69,-20.15,0,*44
1501405632.14,16429,21.38,74562.3,27.61,-18.21,-19.37,0,*41
1501405633.4,16430,21.38,74564.0,27.55,-17.45,-18.45,0,*47
1501405634.63,16431,21.38,74562.5,27.55,-16.55,-17.73,0,*4C
1501405635.86,16432,21.38,74566.3,27.53,-15.95,-17.11,0,*42
1501405637.11,16433,21.38,74564.0,27.55,-15.35,-16.41,0,*4B
1501405638.37,16434,21.38,74560.3,27.55,-15.95,-17.17,0,*44
1501405639.65,16435,21.38,74566.5,27.55,-16.51,-17.63,0,*4D
1501405640.85,16436,21.38,74562.0,27.53,-17.87,-19.37,0,*4D
1501405642.06,16437,21.38,74564.8,27.51,-16.93,-18.25,0,*48
1501405643.27,16438,21.38,74562.0,27.49,-18.11,-19.37,0,*48
1501405644.5,16439,21.38,74560.0,27.47,-18.79,-20.09,0,*4E
1501405645.75,16440,21.38,74564.8,27.43,-18.99,-20.19,0,*4B
1501405646.97,16441,21.38,74566.0,27.43,-17.31,-18.65,0,*47
1501405648.17,16442,21.38,74566.8,27.41,-18.73,-20.09,0,*4E
1501405649.43,16443,21.38,74560.3,27.39,-19.65,-21.09,0,*47
1501405650.66,16444,21.38,74562.8,27.33,-18.55,-19.95,0,*46
1501405651.89,16445,21.38,74564.3,27.33,-19.03,-20.49,0,*4E
1501405653.11,16446,21.38,74566.3,27.31,-18.01,-19.07,0,*4C
1501405654.34,16447,21.38,74564.3,27.29,-16.79,-17.87,0,*43
1501405655.6,16448,21.38,74566.0,27.29,-15.01,-16.13,0,*4C
1501405656.87,16449,21.38,74566.0,27.29,-15.21,-16.27,0,*48
1501405658.07,16450,21.38,74564.3,27.31,-15.75,-16.97,0,*43
1501405659.29,16451,21.38,74566.0,27.33,-17.59,-18.83,0,*47
1501405660.55,16452,21.38,74562.8,27.29,-18.31,-19.51,0,*40
1501405661.77,16453,21.38,74566.5,27.25,-16.97,-18.21,0,*49
1501405662.99,16454,21.38,74564.0,27.27,-18.73,-19.85,0,*47
1501405664.27,16455,21.44,74570.0,27.25,-18.35,-19.61,0,*4C
1501405665.54,16456,21.38,74564.3,27.21,-17.97,-19.23,0,*4A
1501405666.77,16457,21.38,74564.3,27.21,-18.79,-19.99,0,*45
1501405668.03,16458,21.38,74564.3,27.17,-17.45,-18.65,0,*4D
1501405669.27,16459,21.38,74560.3,27.19,-18.01,-19.23,0,*4E
1501405670.51,16460,21.38,74560.8,27.17,-17.63,-18.79,0,*4F
1501405671.74,16461,21.38,74562.3,27.11,-17.69,-18.93,0,*46
1501405672.94,16462,21.38,74562.5,27.11,-16.93,-18.11,0,*4B
1501405674.17,16463,21.38,74558.8,27.11,-15.89,-16.93,0,*46
1501405675.43,16464,21.38,74560.5,27.15,-16.17,-17.25,0,*4D
1501405676.65,16465,21.44,74566.5,27.11,-14.33,-15.35,0,*4F
1501405677.92,16466,21.38,74564.5,27.15,-13.83,-14.83,0,*48
1501405679.17,16467,21.38,74562.0,27.17,-15.11,-16.13,0,*4D
1501405680.4,16468,21.38,74560.0,27.19,-14.29,-15.39,0,*4D
1501405681.62,16469,21.38,74560.5,27.17,-12.97,-13.93,0,*47
1501405682.87,16470,21.38,74560.8,27.21,-13.01,-13.93,0,*44
1501405684.12,16471,21.38,74556.5,27.27,-12.35,-13.29,0,*44
1501405685.31,16472,21.38,74556.3,27.27,-12.89,-13.93,0,*41
1501405686.51,16473,21.38,74562.8,27.27,-13.23,-14.33,0,*4C
1501405687.74,16474,21.38,74562.0,27.27,-14.05,-15.07,0,*4E
1501405688.95,16475,21.38,74560.0,27.31,-13.55,-14.61,0,*4B
1501405690.18,16476,21.38,74558.0,27.33,-12.97,-13.97,0,*4B
1501405691.4,16477,21.38,74562.3,27.37,-12.79,-13.93,0,*4A
1501405692.61,16478,21.38,74562.0,27.37,-13.19,-14.33,0,*4F
1501405693.81,16479,21.44,74560.3,27.37,-12.47,-13.51,0,*47
1501405695.0,16480,21.38,74558.8,27.41,-12.29,-13.43,0,*4B